| time (UTC) | temp F | wind direction | speed MPH | gust MPH | rain 1hr in | rain 24hr in | rain mn in | humidity % | barometer mb |
| 20260508010101 | 85 | 169 | 3.0 | 12.0 | 0.00 | 0.00 | 0.00 | 26 | 1014.0 |
| 20260508004556 | 86 | 203 | 1.0 | 4.0 | 0.00 | 0.00 | 0.00 | 30 | 1014.2 |
| 20260508003043 | 86 | 257 | 2.0 | 8.0 | 0.00 | 0.00 | 0.00 | 28 | 1014.2 |
| 20260508001544 | 86 | 0 | 1.0 | 6.0 | 0.00 | 0.00 | 0.00 | 27 | 1014.3 |
| 20260508000041 | 85 | 324 | 3.0 | 9.0 | 0.00 | 0.00 | 0.00 | 27 | 1014.4 |
| 20260507234544 | 86 | 25 | 1.0 | 10.0 | 0.00 | 0.00 | 0.00 | 31 | 1014.3 |
| 20260507233044 | 86 | 332 | 0.0 | 6.0 | 0.00 | 0.00 | 0.00 | 30 | 1014.4 |
| 20260507231550 | 86 | 318 | 1.0 | 4.0 | 0.00 | 0.00 | 0.00 | 33 | 1014.5 |
| 20260507230043 | 85 | 286 | 2.0 | 8.0 | 0.00 | 0.00 | 0.00 | 28 | 1014.7 |
| 20260507224547 | 85 | 243 | 1.0 | 11.0 | 0.00 | 0.00 | 0.00 | 27 | 1014.9 |
| 20260507223040 | 85 | 226 | 2.0 | 12.0 | 0.00 | 0.00 | 0.00 | 28 | 1015.1 |
| 20260507221538 | 85 | 304 | 2.0 | 11.0 | 0.00 | 0.00 | 0.00 | 28 | 1015.1 |
| 20260507220043 | 84 | 233 | 1.0 | 8.0 | 0.00 | 0.00 | 0.00 | 24 | 1015.3 |
| 20260507214542 | 84 | 244 | 1.0 | 7.0 | 0.00 | 0.00 | 0.00 | 26 | 1015.5 |
| 20260507213049 | 84 | 193 | 2.0 | 10.0 | 0.00 | 0.00 | 0.00 | 22 | 1015.8 |
| 20260507211541 | 83 | 288 | 1.0 | 9.0 | 0.00 | 0.00 | 0.00 | 24 | 1015.8 |
| 20260507210040 | 82 | 0 | 3.0 | 7.0 | 0.00 | 0.00 | 0.00 | 21 | 1015.9 |
| 20260507204545 | 81 | 200 | 3.0 | 9.0 | 0.00 | 0.00 | 0.00 | 21 | 1015.9 |
| 20260507203042 | 81 | 269 | 1.0 | 10.0 | 0.00 | 0.00 | 0.00 | 29 | 1016.2 |
| 20260507201541 | 80 | 315 | 2.0 | 8.0 | 0.00 | 0.00 | 0.00 | 35 | 1016.4 |
| 20260507200041 | 79 | 315 | 0.0 | 2.0 | 0.00 | 0.00 | 0.00 | 40 | 1016.7 |
| 20260507194537 | 77 | 257 | 2.0 | 5.0 | 0.00 | 0.00 | 0.00 | 43 | 1016.8 |
| 20260507193044 | 76 | 209 | 1.0 | 4.0 | 0.00 | 0.00 | 0.00 | 49 | 1017.2 |
| 20260507191543 | 74 | 232 | 2.0 | 5.0 | 0.00 | 0.00 | 0.00 | 46 | 1017.4 |
| 20260507190043 | 73 | 294 | 2.0 | 5.0 | 0.00 | 0.00 | 0.00 | 52 | 1017.6 |
| 20260507184540 | 73 | 177 | 2.0 | 6.0 | 0.00 | 0.00 | 0.00 | 54 | 1017.7 |
| 20260507183040 | 72 | 291 | 1.0 | 4.0 | 0.00 | 0.00 | 0.00 | 54 | 1017.9 |
| 20260507181543 | 71 | 198 | 0.0 | 3.0 | 0.00 | 0.00 | 0.00 | 57 | 1018.1 |
| 20260507180050 | 71 | 197 | 1.0 | 4.0 | 0.00 | 0.00 | 0.00 | 56 | 1018.2 |
| 20260507174542 | 70 | 0 | 0.0 | 2.0 | 0.00 | 0.00 | 0.00 | 58 | 1018.4 |
| 20260507173040 | 68 | 0 | 0.0 | 1.0 | 0.00 | 0.00 | 0.00 | 68 | 1018.7 |
| 20260507171536 | 65 | 0 | 0.0 | 2.0 | 0.00 | 0.00 | 0.00 | 70 | 1018.8 |
| 20260507170044 | 62 | 0 | 0.0 | 1.0 | 0.00 | 0.00 | 0.00 | 78 | 1018.9 |
| 20260507164542 | 59 | 64 | 0.0 | 2.0 | 0.00 | 0.00 | 0.00 | 80 | 1019.2 |
| 20260507163044 | 57 | 0 | 0.0 | 2.0 | 0.00 | 0.00 | 0.00 | 85 | 1019.3 |
| 20260507161542 | 54 | 60 | 1.0 | 2.0 | 0.00 | 0.00 | 0.00 | 87 | 1019.3 |
| 20260507160044 | 53 | 0 | 0.0 | 0.0 | 0.00 | 0.00 | 0.00 | 90 | 1019.5 |
| 20260507154540 | 51 | 0 | 0.0 | 0.0 | 0.00 | 0.00 | 0.00 | 92 | 1019.6 |
| 20260507153049 | 50 | 0 | 0.0 | 0.0 | 0.00 | 0.00 | 0.00 | 93 | 1019.6 |
| 20260507151545 | 49 | 0 | 0.0 | 0.0 | 0.00 | 0.00 | 0.00 | 93 | 1019.7 |
| 20260507150039 | 48 | 0 | 0.0 | 0.0 | 0.00 | 0.00 | 0.00 | 94 | 1019.8 |
| 20260507144537 | 46 | 0 | 0.0 | 0.0 | 0.00 | 0.00 | 0.00 | 93 | 1020.0 |
| 20260507143043 | 46 | 0 | 0.0 | 0.0 | 0.00 | 0.00 | 0.00 | 93 | 1019.9 |
| 20260507141542 | 46 | 0 | 0.0 | 0.0 | 0.00 | 0.00 | 0.00 | 92 | 1019.8 |
| 20260507140057 | 45 | 0 | 0.0 | 0.0 | 0.00 | 0.00 | 0.00 | 92 | 1019.7 |
| 20260507134536 | 45 | 0 | 0.0 | 0.0 | 0.00 | 0.00 | 0.00 | 91 | 1019.6 |
| 20260507133044 | 46 | 0 | 0.0 | 0.0 | 0.00 | 0.00 | 0.00 | 91 | 1019.6 |
| 20260507131545 | 46 | 0 | 0.0 | 0.0 | 0.00 | 0.00 | 0.00 | 92 | 1019.5 |
| 20260507130050 | 47 | 0 | 0.0 | 0.0 | 0.00 | 0.00 | 0.00 | 92 | 1019.4 |
| 20260507124546 | 47 | 0 | 0.0 | 0.0 | 0.00 | 0.00 | 0.00 | 92 | 1019.4 |
| 20260507123054 | 47 | 0 | 0.0 | 1.0 | 0.00 | 0.00 | 0.00 | 92 | 1019.4 |
| 20260507121546 | 47 | 0 | 0.0 | 1.0 | 0.00 | 0.00 | 0.00 | 92 | 1019.3 |
| 20260507120045 | 46 | 0 | 0.0 | 0.0 | 0.00 | 0.00 | 0.00 | 91 | 1019.5 |
| 20260507114544 | 47 | 0 | 0.0 | 0.0 | 0.00 | 0.00 | 0.00 | 91 | 1019.5 |
| 20260507113039 | 47 | 0 | 0.0 | 0.0 | 0.00 | 0.00 | 0.00 | 90 | 1019.6 |
| 20260507111535 | 47 | 0 | 0.0 | 0.0 | 0.00 | 0.00 | 0.00 | 89 | 1019.6 |
| 20260507110043 | 48 | 0 | 0.0 | 0.0 | 0.00 | 0.00 | 0.00 | 89 | 1019.5 |
| 20260507104543 | 49 | 0 | 0.0 | 1.0 | 0.00 | 0.00 | 0.00 | 90 | 1019.6 |
| 20260507103040 | 49 | 0 | 0.0 | 1.0 | 0.00 | 0.00 | 0.00 | 89 | 1019.5 |
| 20260507101549 | 49 | 0 | 0.0 | 1.0 | 0.00 | 0.00 | 0.00 | 88 | 1019.5 |
| 20260507100041 | 50 | 0 | 0.0 | 0.0 | 0.00 | 0.00 | 0.00 | 89 | 1019.5 |
| 20260507094546 | 50 | 0 | 0.0 | 1.0 | 0.00 | 0.00 | 0.00 | 89 | 1019.5 |
| 20260507093050 | 50 | 0 | 0.0 | 1.0 | 0.00 | 0.00 | 0.00 | 88 | 1019.6 |
| 20260507091540 | 50 | 0 | 0.0 | 0.0 | 0.00 | 0.00 | 0.00 | 87 | 1019.6 |
| 20260507090041 | 51 | 0 | 0.0 | 2.0 | 0.00 | 0.00 | 0.00 | 86 | 1019.4 |
| 20260507084551 | 51 | 0 | 0.0 | 1.0 | 0.00 | 0.00 | 0.00 | 87 | 1019.6 |
| 20260507083048 | 52 | 0 | 0.0 | 1.0 | 0.00 | 0.00 | 0.00 | 86 | 1019.6 |
| 20260507081548 | 52 | 0 | 0.0 | 0.0 | 0.00 | 0.00 | 0.00 | 85 | 1019.4 |
| 20260507080113 | 52 | 0 | 0.0 | 0.0 | 0.00 | 0.00 | 0.00 | 85 | 1019.7 |
| 20260507074557 | 53 | 0 | 0.0 | 0.0 | 0.00 | 0.00 | 0.00 | 83 | 1019.6 |
| 20260507073057 | 54 | 0 | 0.0 | 0.0 | 0.00 | 0.00 | 0.00 | 83 | 1019.7 |
| 20260507071600 | 54 | 0 | 0.0 | 0.0 | 0.00 | 0.00 | 0.00 | 82 | 1019.7 |
| 20260507070046 | 55 | 0 | 0.0 | 0.0 | 0.00 | 0.00 | 0.00 | 80 | 1019.6 |
| 20260507064553 | 55 | 0 | 0.0 | 0.0 | 0.00 | 0.00 | 0.00 | 80 | 1019.5 |
| 20260507063043 | 56 | 0 | 0.0 | 0.0 | 0.00 | 0.00 | 0.00 | 78 | 1019.7 |
| 20260507061545 | 57 | 0 | 0.0 | 0.0 | 0.00 | 0.00 | 0.00 | 76 | 1019.7 |
| 20260507060044 | 58 | 0 | 0.0 | 0.0 | 0.00 | 0.00 | 0.00 | 74 | 1019.5 |
| 20260507054550 | 59 | 0 | 0.0 | 1.0 | 0.00 | 0.00 | 0.00 | 73 | 1019.4 |
| 20260507053046 | 60 | 0 | 0.0 | 0.0 | 0.00 | 0.00 | 0.00 | 72 | 1019.5 |
| 20260507051545 | 61 | 0 | 0.0 | 1.0 | 0.00 | 0.00 | 0.00 | 70 | 1019.5 |
| 20260507050045 | 62 | 0 | 0.0 | 1.0 | 0.00 | 0.00 | 0.00 | 68 | 1019.4 |
| 20260507044543 | 63 | 0 | 0.0 | 1.0 | 0.00 | 0.00 | 0.00 | 66 | 1019.4 |
| 20260507043043 | 65 | 0 | 0.0 | 1.0 | 0.00 | 0.00 | 0.00 | 63 | 1019.3 |
| 20260507041543 | 66 | 58 | 0.0 | 1.0 | 0.00 | 0.00 | 0.00 | 61 | 1018.9 |
| 20260507040048 | 67 | 0 | 0.0 | 2.0 | 0.00 | 0.00 | 0.00 | 60 | 1018.7 |
| 20260507034553 | 69 | 0 | 0.0 | 3.0 | 0.00 | 0.00 | 0.00 | 56 | 1018.5 |
| 20260507033038 | 70 | 48 | 1.0 | 2.0 | 0.00 | 0.00 | 0.00 | 54 | 1018.2 |
| 20260507031544 | 72 | 47 | 0.0 | 2.0 | 0.00 | 0.00 | 0.00 | 52 | 1018.0 |
| 20260507030043 | 73 | 0 | 0.0 | 2.0 | 0.00 | 0.00 | 0.00 | 50 | 1017.9 |
| 20260507024538 | 74 | 0 | 0.0 | 2.0 | 0.00 | 0.00 | 0.00 | 48 | 1017.7 |
| 20260507023043 | 75 | 46 | 1.0 | 5.0 | 0.00 | 0.00 | 0.00 | 46 | 1017.6 |
| 20260507021535 | 78 | 335 | 0.0 | 7.0 | 0.00 | 0.00 | 0.00 | 42 | 1017.5 |
| 20260507020053 | 80 | 5 | 0.0 | 6.0 | 0.00 | 0.00 | 0.00 | 38 | 1017.4 |
| 20260507014540 | 81 | 329 | 1.0 | 7.0 | 0.00 | 0.00 | 0.00 | 38 | 1017.2 |
| 20260507013039 | 82 | 355 | 1.0 | 6.0 | 0.00 | 0.00 | 0.00 | 39 | 1017.2 |
| 20260507011540 | 83 | 319 | 1.0 | 8.0 | 0.00 | 0.00 | 0.00 | 40 | 1017.1 |